Starlink 33598

operational
NORAD ID: 62771 Int'l Des: 2025-015 Owner: SPXS Country: US Constellation: starlink
LEOCIRCULAR

Über Starlink 33598

Beschreibung wird geladen...

Live-Position

3D-Globus wird geladen...

Nächste Überflüge

Höhenverlauf

Altitude vs Time

uPlot chart will show altitude changes over time

Zweizeiliger Elementsatz

1 62771U 25015P 25305.40692256 .00034091 00000-0 11572-2 0 9990
2 62771 53.1581 198.0898 0000577 101.3935 258.7131 15.30218873 44847
Epoch: 1. Nov. 2025 • Age: 26 hours

Aktueller Status

Höhe 476.7 km
Geschwindigkeit 7.63 km/s
Subsatellitenpunkt 32.55°N, 131.03°E
Startdatum 21. Jan. 2025
Alter 0.7 years
Typ internet

Technische Details

Klassifizierung Payload
Masse 575.00 kg
Trockenmasse 530.00 kg
Gesamtmasse 575.00 kg
Länge 0.30 m
Durchmesser 4.10 m
Spannweite 29.00 m
Form Box + pan
Hersteller SPXS
Bus-Typ Starlink V2MO
Phasenstatus In Orbit
Besitzer/Staat SPXS/US

Große Konstellationen

Loading constellations...